Wind_Speed
11 11 12 12 12 14 12 11 6 14 13 15 20 24 23 18 18 17 20 19 19 18 17 16 15 19 21 18 17 23 20 14 22 16 15 14 19 18 22 18 18 21 13 4
9 10 10 10 10 9 10 11 11 11 13 19 21 20 23 22 21 19 19 19 18 17 16 14 18 20 9 4 17 18 20 17 18 18 16 16 18 19 20 19 23 21 12 9
11 11 11 10 8 8 6 8 3 13 15 19 21 20 23 24 23 22 20 18 19 17 19 18 15 17 13 12 14 11 13 14 20 23 15 10 15 17 19 22 22 23 23 8
9 9 9 9 7 6 4 2 6 9 12 14 20 23 19 19 24 21 21 21 21 20 20 20 22 19 17 12 14 19 17 20 19 25 16 11 17 20 18 22 25 20 20 11
10 10 9 8 7 6 3 4 11 14 18 14 11 17 25 21 16 25 23 22 19 21 20 21 19 19 19 16 17 16 18 21 18 23 20 19 16 16 11 15 18 24 22 15
11 11 10 10 7 8 10 19 17 23 19 13 12 14 15 23 21 18 23 17 20 21 21 22 19 18 15 19 18 15 22 22 22 24 20 20 23 16 19 21 19 18 11 4
12 11 11 11 9 9 11 13 11 13 14 13 13 15 20 20 24 23 17 21 17 17 16 16 19 19 13 16 16 15 11 22 20 24 21 18 24 21 11 16 15 17 7 6
12 11 10 10 10 10 10 10 11 13 12 12 13 17 11 15 11 26 20 15 18 22 16 12 15 21 20 21 22 17 16 11 16 23 22 19 8 12 20 18 15 9 4 7
12 11 9 9 9 9 8 10 12 12 14 11 7 7 8 10 10 12 22 18 13 10 15 17 21 20 22 23 25 24 23 23 16 22 21 19 23 10 13 6 8 5 6 12
11 10 9 8 8 8 7 9 13 15 17 13 12 4 14 7 14 12 5 19 17 16 20 22 23 24 21 26 26 24 28 28 29 28 21 22 10 10 10 14 8 9 8 11
10 10 9 9 7 7 7 7 11 16 20 17 14 12 11 7 7 15 19 15 13 9 18 22 20 23 24 23 23 31 28 31 29 25 28 29 10 12 13 12 12 10 12 18
9 9 9 9 9 8 8 8 8 13 19 16 15 20 14 19 11 8 6 7 11 7 7 14 12 10 7 9 12 11 26 16 18 11 16 17 19 21 18 20 18 19 18 14
9 8 8 8 8 8 8 8 9 10 12 17 17 11 14 24 23 21 18 10 2 12 6 3 0 5 7 6 5 9 11 13 21 17 16 15 14 14 11 13 18 20 21 22
10 8 8 7 7 6 6 6 6 6 5 2 1 8 18 20 23 26 18 23 20 10 11 7 7 9 11 6 6 5 5 5 8 23 25 29 15 4 12 12 16 19 21 18
10 9 8 9 7 6 5 4 4 4 4 7 13 5 9 12 19 24 23 23 20 18 12 10 12 14 15 12 10 6 6 10 6 12 13 15 14 13 16 20 16 17 15 13
10 9 9 8 7 5 7 6 2 4 6 7 6 10 10 9 12 16 22 21 22 17 11 14 13 13 15 11 16 12 15 8 18 13 20 12 15 14 13 14 9 8 8 8
10 9 8 8 7 6 7 6 5 4 4 5 5 3 4 5 5 7 12 14 14 13 15 16 14 15 17 15 19 15 17 19 15 19 17 18 13 14 9 3 7 9 8 7
8 8 8 7 7 6 6 5 4 3 3 3 3 4 7 0 3 5 6 8 10 16 16 18 19 16 19 18 15 14 18 24 22 22 25 20 19 8 10 11 10 9 8 8
6 5 6 7 7 7 5 4 5 5 5 3 6 1 2 1 9 8 6 10 14 13 18 22 21 24 24 16 19 20 14 19 18 20 16 7 19 27 14 13 10 9 8 10
4 3 3 5 5 3 5 4 5 2 4 8 4 5 7 5 5 7 13 6 12 16 21 17 26 28 29 30 20 19 19 22 16 9 9 13 18 10 13 14 12 10 12 13
7 3 9 10 5 3 4 3 2 2 3 3 2 2 6 6 9 10 7 4 7 13 19 22 25 30 25 24 25 26 18 21 15 10 14 14 16 17 12 16 16 13 13 14
5 5 4 3 1 2 1 2 0 1 3 2 1 5 8 3 7 6 7 7 7 8 10 14 25 24 20 20 23 25 22 20 15 14 11 15 12 20 19 20 17 15 13 14
5 4 4 3 5 5 2 2 2 4 2 3 2 8 13 5 2 5 6 5 8 9 7 13 14 12 16 18 17 22 19 24 20 17 14 11 18 23 24 21 17 14 13 14
3 2 2 2 1 3 3 4 4 4 3 4 8 8 11 12 8 6 5 6 6 5 6 10 6 10 15 9 17 14 17 15 22 20 19 24 24 27 22 16 15 14 14 15
3 2 3 2 1 5 6 8 5 5 8 8 12 11 11 9 8 5 5 4 5 4 3 6 10 12 10 12 22 18 12 22 22 26 30 31 24 21 17 17 17 18 17 17
4 4 2 1 6 6 6 2 4 9 4 9 11 9 6 6 5 5 5 4 3 13 12 8 12 10 13 15 13 19 18 22 25 28 27 25 21 16 18 17 16 14 17 18
6 3 3 5 6 9 8 7 7 8 10 10 10 5 3 5 5 6 5 5 8 14 15 14 14 15 8 9 12 17 28 25 22 22 18 19 16 16 13 10 15 19 20 26
Wind_Direction
309 304 300 297 289 278 264 238 187 229 230 222 222 230 234 236 238 250 250 245 253 258 249 257 238 236 239 233 219 219 220 236 242 250 227 237 238 233 229 242 248 262 287 186
326 324 319 313 311 294 263 218 194 256 223 231 234 244 242 241 239 239 237 246 239 243 249 260 234 236 258 224 203 222 218 222 246 249 239 216 218 231 229 235 266 281 292 259
323 323 322 315 313 311 282 211 219 218 245 236 233 243 246 245 236 238 237 241 239 236 238 236 238 240 241 219 203 232 215 241 224 238 235 329 223 239 240 242 234 247 251 172
321 318 319 306 306 312 289 153 226 282 225 255 245 241 243 245 234 235 234 237 231 231 236 233 231 234 239 226 233 237 231 246 242 248 272 267 251 242 227 243 241 254 273 248
331 324 333 314 294 291 180 257 265 240 229 258 263 234 235 237 242 232 235 235 229 228 234 232 231 230 241 243 228 228 225 236 246 256 261 250 239 247 259 237 242 251 262 163
323 330 331 328 301 270 241 248 243 242 234 260 257 241 240 239 241 239 228 240 230 232 240 235 232 226 253 240 250 229 223 229 237 253 249 256 265 247 257 251 256 268 284 160
311 319 327 331 322 295 263 263 256 244 256 249 245 250 245 246 242 238 230 228 223 234 247 218 224 236 238 237 234 232 227 233 244 250 254 261 258 273 228 310 248 251 196 211
304 303 315 319 325 314 278 252 243 237 244 247 273 248 241 241 244 229 227 221 232 248 244 238 229 236 242 235 228 229 238 243 246 246 252 258 232 241 231 292 250 250 274 172
302 300 301 310 319 314 288 252 239 242 243 242 275 298 194 258 253 232 227 222 257 240 225 225 232 233 232 231 231 226 229 232 233 259 245 252 255 150 180 231 257 236 173 182
310 301 296 297 301 311 303 267 243 239 247 231 230 308 231 264 238 239 182 211 238 250 222 227 229 235 234 227 213 219 224 229 232 241 253 257 265 184 199 217 213 193 194 207
318 311 300 291 296 305 312 299 253 244 242 223 248 241 242 254 311 222 219 193 203 216 211 223 228 236 235 241 239 218 213 216 225 239 238 245 248 221 222 219 206 196 203 211
322 315 309 298 292 297 299 301 278 260 248 228 243 237 258 254 234 283 241 186 198 196 242 221 236 246 279 255 232 238 236 219 241 224 221 237 227 213 212 221 233 244 254 249
319 323 322 313 296 285 292 297 295 278 269 241 244 242 269 237 250 250 212 250 230 196 213 19 201 257 245 282 263 207 222 206 213 247 242 237 209 191 188 218 236 255 267 275
306 317 328 330 312 291 284 300 302 297 283 226 172 244 264 257 242 246 240 250 254 261 266 277 266 280 288 259 275 261 300 273 214 242 255 251 298 197 234 263 270 261 268 267
293 300 314 331 324 292 281 286 296 288 252 219 198 241 268 257 245 245 245 246 251 254 273 274 262 259 269 271 270 258 293 261 244 271 246 224 247 272 274 259 243 247 255 251
286 294 307 320 320 285 281 287 282 260 261 263 217 226 273 277 249 239 239 244 245 248 240 247 244 267 260 261 257 240 290 246 229 245 253 267 247 222 205 146 162 196 222 242
279 291 302 312 314 292 293 307 293 276 254 260 246 267 224 252 252 251 237 234 224 237 230 244 244 244 268 253 255 252 250 263 244 234 248 270 270 252 224 241 241 248 244 243
276 289 299 306 305 292 291 301 316 306 291 220 226 266 181 30 224 225 244 223 233 226 233 235 238 243 255 253 253 241 241 248 242 253 256 241 225 205 212 244 216 212 222 244
274 291 301 301 293 296 300 327 301 271 247 204 216 61 300 127 242 235 207 220 234 244 238 234 233 234 239 245 259 255 250 243 230 239 258 248 293 183 212 243 233 227 239 259
260 312 318 354 330 310 308 334 358 335 247 225 227 245 287 293 275 261 225 229 241 243 242 240 231 240 244 259 252 266 228 224 209 219 223 229 242 215 200 237 245 245 254 267
214 116 240 261 280 307 16 334 6 17 343 271 231 252 292 264 239 252 254 226 246 250 245 236 240 241 246 244 235 247 233 238 227 224 215 226 248 261 245 245 256 255 252 260
221 223 221 234 290 67 295 284 327 223 258 221 288 286 338 276 252 231 247 238 239 248 250 250 240 247 247 243 241 243 240 228 220 218 234 214 235 249 254 255 246 244 242 246
202 216 214 153 191 233 206 223 211 245 256 217 338 333 327 297 274 268 247 241 243 264 244 251 254 268 239 244 226 236 237 213 214 222 227 232 230 249 255 255 246 242 245 244
147 205 227 178 215 168 223 271 302 274 249 286 312 309 290 296 287 262 248 242 256 256 239 243 236 222 210 203 213 225 241 220 213 219 226 233 232 245 253 251 248 249 250 241
172 178 243 278 215 286 251 237 250 254 271 279 292 302 280 275 262 256 266 258 246 250 276 302 296 242 233 190 201 181 212 202 214 210 212 223 248 243 242 249 254 256 247 235
184 182 160 326 295 275 275 267 241 250 299 294 301 281 267 257 246 250 246 261 285 344 346 290 326 250 225 215 235 218 193 211 211 216 226 239 234 235 249 253 250 244 224 224
148 66 296 293 307 298 257 263 277 271 284 284 286 275 257 282 250 258 247 266 290 335 311 302 298 306 288 222 211 210 215 226 229 219 223 213 226 239 244 251 226 221 221 207
Height
3089 3088 3087 3085 3085 3084 3085 3088 3094 3093 3094 3099 3100 3100 3104 3107 3109 3110 3111 3112 3111 3111 3110 3110 3110 3111 3113 3114 3116 3119 3123 3125 3125 3122 3123 3126 3125 3126 3128 3128 3127 3124 3123 3125
3088 3086 3085 3083 3082 3082 3082 3084 3090 3092 3093 3095 3096 3099 3100 3102 3105 3106 3108 3108 3109 3110 3109 3111 3110 3110 3111 3109 3113 3117 3119 3121 3122 3121 3121 3120 3121 3122 3124 3126 3126 3124 3125 3126
3085 3084 3082 3081 3081 3080 3081 3083 3089 3090 3089 3091 3093 3095 3096 3097 3100 3101 3104 3105 3106 3107 3108 3109 3110 3109 3109 3110 3113 3113 3115 3117 3119 3115 3116 3118 3118 3119 3119 3120 3122 3122 3121 3121
3084 3082 3080 3079 3078 3079 3080 3081 3086 3087 3086 3088 3088 3090 3092 3091 3094 3096 3099 3100 3102 3103 3105 3106 3107 3108 3108 3109 3112 3114 3116 3116 3115 3113 3114 3114 3113 3113 3114 3115 3116 3119 3119 3118
3081 3080 3077 3076 3076 3077 3078 3078 3078 3076 3077 3079 3081 3083 3086 3089 3090 3093 3094 3096 3098 3100 3101 3103 3104 3107 3107 3106 3109 3111 3114 3114 3114 3112 3111 3111 3111 3111 3110 3111 3113 3114 3115 3113
3078 3076 3075 3073 3073 3074 3074 3071 3074 3074 3075 3077 3081 3082 3083 3085 3088 3088 3090 3093 3094 3096 3099 3099 3101 3103 3103 3105 3106 3107 3110 3111 3112 3110 3111 3108 3106 3108 3108 3109 3112 3112 3110 3112
3075 3074 3072 3071 3070 3070 3069 3069 3070 3071 3073 3077 3079 3078 3080 3081 3083 3085 3086 3089 3091 3092 3087 3091 3094 3097 3099 3101 3102 3104 3105 3108 3109 3108 3108 3104 3103 3103 3104 3104 3108 3111 3105 3109
3073 3072 3071 3069 3068 3066 3065 3066 3067 3068 3068 3072 3073 3072 3071 3074 3075 3079 3081 3084 3087 3082 3086 3091 3093 3094 3095 3096 3099 3102 3103 3105 3106 3105 3104 3104 3105 3101 3103 3108 3109 3110 3109 3103
3070 3069 3068 3067 3066 3064 3063 3063 3064 3064 3065 3069 3067 3066 3068 3072 3074 3076 3077 3078 3078 3080 3086 3089 3088 3089 3091 3092 3094 3097 3101 3103 3105 3108 3102 3100 3100 3100 3103 3106 3107 3107 3110 3105
3067 3066 3065 3065 3064 3062 3061 3060 3061 3061 3061 3064 3063 3064 3065 3065 3064 3067 3071 3076 3078 3079 3083 3084 3084 3084 3084 3083 3086 3091 3094 3097 3097 3099 3099 3099 3097 3096 3099 3103 3107 3103 3101 3105
3065 3063 3062 3062 3061 3060 3059 3058 3058 3058 3058 3060 3060 3060 3063 3066 3068 3065 3068 3073 3077 3078 3080 3081 3080 3079 3079 3079 3080 3082 3086 3089 3092 3095 3095 3096 3095 3095 3099 3096 3097 3096 3099 3099
3064 3062 3060 3059 3058 3058 3057 3056 3055 3055 3054 3057 3057 3059 3060 3061 3065 3066 3065 3067 3069 3071 3074 3075 3075 3075 3075 3074 3078 3080 3086 3084 3087 3089 3088 3086 3086 3086 3089 3091 3093 3093 3097 3100
3062 3061 3059 3057 3056 3056 3055 3054 3053 3052 3051 3052 3055 3058 3057 3059 3061 3064 3064 3065 3063 3066 3069 3071 3072 3073 3073 3075 3074 3077 3079 3079 3084 3087 3088 3083 3083 3082 3082 3086 3090 3089 3093 3096
3060 3059 3058 3056 3055 3054 3053 3053 3052 3051 3051 3051 3055 3055 3055 3055 3057 3058 3062 3061 3064 3066 3069 3069 3071 3073 3072 3074 3076 3076 3074 3077 3082 3082 3080 3078 3075 3083 3081 3085 3089 3089 3089 3092
3057 3057 3057 3055 3054 3052 3052 3052 3051 3051 3053 3051 3050 3051 3052 3053 3052 3054 3056 3057 3061 3064 3066 3068 3072 3073 3071 3071 3073 3077 3076 3079 3078 3081 3076 3068 3078 3078 3082 3081 3084 3086 3088 3089
3054 3055 3054 3053 3052 3051 3050 3050 3050 3049 3049 3050 3050 3051 3050 3049 3050 3051 3053 3055 3058 3061 3064 3066 3068 3068 3070 3071 3071 3076 3074 3072 3072 3076 3075 3078 3079 3079 3080 3073 3083 3085 3087 3088
3052 3051 3051 3051 3050 3049 3049 3050 3049 3048 3049 3049 3049 3050 3050 3049 3049 3050 3051 3052 3056 3059 3062 3063 3066 3067 3064 3065 3067 3071 3070 3071 3073 3073 3073 3075 3079 3079 3078 3078 3081 3083 3085 3090
3049 3049 3049 3048 3048 3048 3048 3047 3046 3046 3047 3048 3047 3047 3050 3050 3050 3053 3052 3053 3054 3055 3058 3060 3061 3064 3061 3059 3061 3063 3066 3065 3067 3069 3070 3071 3075 3076 3077 3078 3081 3081 3083 3089
3047 3047 3047 3047 3046 3045 3045 3045 3045 3045 3048 3046 3046 3048 3048 3050 3048 3048 3048 3052 3052 3053 3052 3054 3058 3056 3051 3055 3056 3056 3059 3061 3065 3065 3069 3064 3066 3068 3074 3076 3080 3080 3083 3085
3045 3046 3047 3046 3045 3045 3045 3044 3044 3042 3043 3044 3044 3048 3049 3050 3049 3047 3049 3049 3049 3047 3047 3048 3047 3047 3049 3050 3052 3053 3054 3057 3058 3062 3068 3069 3069 3060 3070 3071 3075 3077 3077 3079
3043 3045 3046 3045 3045 3045 3045 3045 3045 3045 3045 3043 3044 3046 3045 3046 3046 3046 3046 3045 3045 3041 3040 3041 3040 3039 3041 3045 3047 3049 3051 3053 3054 3059 3064 3066 3066 3066 3068 3067 3070 3073 3074 3074
3042 3043 3043 3044 3045 3045 3047 3046 3046 3046 3046 3045 3045 3045 3044 3043 3042 3043 3043 3042 3042 3037 3035 3034 3032 3034 3037 3040 3041 3043 3046 3048 3050 3057 3059 3061 3065 3060 3064 3065 3069 3070 3072 3072
3040 3042 3042 3044 3045 3046 3046 3046 3046 3046 3044 3045 3045 3044 3044 3042 3042 3040 3040 3038 3036 3035 3032 3030 3029 3030 3033 3034 3036 3039 3042 3045 3050 3055 3057 3060 3060 3059 3062 3062 3065 3066 3068 3068
3040 3041 3041 3042 3043 3043 3045 3045 3044 3045 3045 3044 3044 3043 3041 3041 3039 3038 3036 3035 3033 3030 3028 3026 3024 3026 3025 3029 3034 3037 3038 3041 3046 3051 3054 3053 3054 3057 3058 3059 3061 3063 3065 3066
3040 3043 3042 3042 3044 3043 3043 3042 3043 3043 3043 3043 3042 3041 3040 3038 3037 3035 3034 3032 3029 3026 3024 3024 3022 3023 3024 3026 3027 3027 3034 3035 3040 3044 3045 3046 3051 3053 3055 3057 3058 3058 3059 3062
3038 3039 3042 3045 3045 3042 3041 3040 3041 3040 3041 3041 3040 3038 3036 3034 3033 3032 3030 3029 3026 3021 3025 3023 3021 3016 3020 3025 3026 3027 3029 3033 3035 3037 3042 3046 3049 3050 3051 3051 3052 3053 3055 3058
3038 3041 3043 3044 3044 3041 3040 3039 3039 3039 3039 3039 3037 3036 3034 3033 3031 3030 3028 3027 3024 3022 3022 3021 3020 3020 3020 3021 3022 3023 3027 3030 3033 3036 3039 3042 3045 3046 3046 3047 3049 3050 3052 3055